Location: Cormont
(50.5693°N, 1.7416°E)
Time: 01:31:06
(UTC+00:00)

STARLINK-68 - Pass Details

Date: 21 October 2019
Orbit: 548 x 551 km, 53.0° (Epoch: 12 November)

Event Time Altitude Azimuth Distance (km) Brightness Sun altitude
Rises 18:51:23 0° 283° (WNW) 2,720 8.8 -20.0°
Reaches altitude 10° 18:53:38 10° 286° (WNW) 1,826 7.4 -20.3°
Maximum altitude 18:57:45 66° 9° (N) 603 3.7 -21.0°
Enters shadow 18:58:14 60° 50° (NE) 635 3.6 -21.1°
